English version Home page |
Updated on December 24, 2014 |
|
軌道要素Epoch 2014 July 2.0 TT = JDT 2456840.5 T 2014 July 11.62907 TT MPC q 0.7841523 (2000.0) P Q n 0.10922578 Peri. 337.83984 +0.96763834 -0.23420748 a 4.3343032 Node 36.11656 +0.24876420 +0.82291922 e 0.8190823 Incl. 9.16963 +0.04233697 +0.51763965 P 9.02 From 26 observations 1881 Oct. 19-2014 June 18, mean residual 1".6. Nongravitational parameters A1 = -0.06, A2 = +0.0240.
|
星図
|
光度変化m1 = 17.5 + 5 logΔ + 23.0 log r
|
軌道要素はM.P.E.C. 2014-M11に掲載されたものです。
|